Wahpeton, MN

6:46 PM CST on December 07, 2019 (GMT -0600)
Stern

Weather History for KBWP - October, 2019

Change the Weather History Date:

Friday, October 11, 2019

  Actual Average (KFFM) Record (KFFM)
Temperature  
Mean Temperature 32 °F -  
Max Temperature 32 °F 58 °F 91 °F (2015)
Min Temperature 32 °F 36 °F 24 °F (1967)
Degree Days  
Heating Degree Days 33    
Moisture  
Dew Point 30 °F    
Average Humidity 92    
Maximum Humidity 100    
Minimum Humidity 87    
Precipitation  
Precipitation 0.01 in - - ()
Sea Level Pressure  
Sea Level Pressure 29.65 in    
Wind  
Wind Speed 20 mph ()    
Max Wind Speed 34 mph    
Max Gust Speed 43 mph    
Visibility 3.1 miles    
Events      
Averages and records for this station are not official NWS values.
T = Trace of Precipitation, MM = Missing Value Source: Averaged Metar Reports

Daily Weather History Graph

Daily Weather History Graph

Search for Another Location

Airport or City:

Astronomy

Oct. 11, 2019 Rise Set
Actual Time 7:37 AM CDT 6:47 PM CDT
Civil Twilight 7:07 AM CDT 7:17 PM CDT
Nautical Twilight 6:33 AM CDT 7:52 PM CDT
Astronomical Twilight 5:58 AM CDT 8:27 PM CDT
Moon 6:27 PM CDT (10/11) 5:07 AM CDT (10/11)
Length of Visible Light 12h 09m
Length of Day
11h 09m
Waxing Gibbous, 96% of the Moon is Illuminated
Oct 11
Waxing Gibbous
Oct 13
Full
Oct 21
Last Quarter
Oct 27
New
Nov 4
First Quarter

Hourly Weather History & Observations

Time (CDT) Temp. Windchill Dew Point Humidity Pressure Visibility Wind Dir Wind Speed Gust Speed Precip Events Conditions
12:15 AM 32.0 °F 22.1 °F 32.0 °F 100% 29.79 in 3.0 mi WNW 13.8 mph 21.9 mph N/A   Unknown
12:35 AM 32.0 °F 21.2 °F 32.0 °F 100% 29.78 in 3.0 mi NW 16.1 mph 21.9 mph N/A   Unknown
12:55 AM 32.0 °F 21.6 °F 32.0 °F 100% 29.76 in 2.5 mi NW 15.0 mph - N/A   Unknown
1:15 AM 32.0 °F 22.1 °F 32.0 °F 100% 29.76 in 2.5 mi WNW 13.8 mph 20.7 mph N/A   Unknown
1:35 AM 32.0 °F 21.2 °F 32.0 °F 100% 29.75 in 2.5 mi WNW 16.1 mph - N/A   Unknown
1:55 AM 32.0 °F 22.1 °F 32.0 °F 100% 29.76 in 2.5 mi WNW 13.8 mph - N/A   Unknown
2:15 AM 32.0 °F 21.2 °F 30.2 °F 93% 29.74 in 2.5 mi WNW 16.1 mph 19.6 mph N/A   Unknown
2:35 AM 32.0 °F 21.2 °F 30.2 °F 93% 29.73 in 3.0 mi WNW 16.1 mph 21.9 mph N/A   Unknown
2:55 AM 32.0 °F 21.2 °F 30.2 °F 93% 29.75 in 3.0 mi WNW 16.1 mph - N/A   Unknown
3:35 AM 32.0 °F 21.6 °F 30.2 °F 93% 29.72 in 1.8 mi WNW 15.0 mph - N/A   Unknown
3:55 AM 32.0 °F 20.8 °F 30.2 °F 93% 29.70 in 2.5 mi WNW 17.3 mph - N/A   Unknown
4:15 AM 32.0 °F 20.5 °F 30.2 °F 93% 29.70 in 3.0 mi WNW 18.4 mph 24.2 mph N/A   Unknown
4:35 AM 32.0 °F 20.8 °F 30.2 °F 93% 29.70 in 3.0 mi WNW 17.3 mph - N/A   Unknown
4:55 AM 32.0 °F 20.5 °F 30.2 °F 93% 29.70 in 3.0 mi West 18.4 mph - N/A   Unknown
5:15 AM 32.0 °F 20.1 °F 30.2 °F 93% 29.69 in 2.5 mi WNW 19.6 mph 24.2 mph N/A   Unknown
5:35 AM 32.0 °F 20.1 °F 30.2 °F 93% 29.69 in 3.0 mi West 19.6 mph 23.0 mph N/A   Unknown
5:55 AM 32.0 °F 21.2 °F 30.2 °F 93% 29.69 in 4.0 mi WNW 16.1 mph 21.9 mph N/A   Unknown
6:15 AM 32.0 °F 21.2 °F 30.2 °F 93% 29.68 in 4.0 mi WNW 16.1 mph 21.9 mph N/A   Unknown
6:35 AM 32.0 °F 20.5 °F 30.2 °F 93% 29.68 in 3.0 mi West 18.4 mph - N/A   Unknown
6:55 AM 32.0 °F 21.2 °F 30.2 °F 93% 29.67 in 4.0 mi West 16.1 mph - N/A   Unknown
7:15 AM 32.0 °F 21.2 °F 30.2 °F 93% 29.68 in 5.0 mi West 16.1 mph 23.0 mph N/A   Unknown
7:35 AM 32.0 °F 20.5 °F 30.2 °F 93% 29.67 in 5.0 mi West 18.4 mph - N/A   Unknown
7:55 AM 32.0 °F 20.5 °F 30.2 °F 93% 29.67 in 5.0 mi West 18.4 mph - N/A   Unknown
8:55 AM 32.0 °F 19.8 °F 30.2 °F 93% 29.65 in 2.5 mi West 20.7 mph 24.2 mph N/A   Unknown
9:15 AM 32.0 °F 19.8 °F 30.2 °F 93% 29.64 in 2.5 mi West 20.7 mph 25.3 mph N/A   Unknown
9:35 AM 32.0 °F 20.5 °F 30.2 °F 93% 29.64 in 2.0 mi West 18.4 mph - N/A   Unknown
9:55 AM 32.0 °F 20.1 °F 30.2 °F 93% 29.64 in 1.5 mi West 19.6 mph - N/A   Unknown
10:15 AM 32.0 °F 19.8 °F 30.2 °F 93% 29.64 in 1.5 mi West 20.7 mph 27.6 mph N/A   Unknown
10:35 AM 32.0 °F 18.9 °F 30.2 °F 93% 29.63 in 1.5 mi West 24.2 mph 27.6 mph N/A   Unknown
10:55 AM 32.0 °F 19.8 °F 30.2 °F 93% 29.63 in 1.5 mi West 20.7 mph 26.5 mph N/A   Unknown
11:15 AM 32.0 °F 19.5 °F 30.2 °F 93% 29.62 in 1.5 mi West 21.9 mph 33.4 mph N/A   Unknown
11:35 AM 32.0 °F 18.6 °F 30.2 °F 93% 29.62 in 1.2 mi West 25.3 mph 31.1 mph N/A   Unknown
11:55 AM 32.0 °F 18.4 °F 30.2 °F 93% 29.61 in 1.0 mi West 26.5 mph 33.4 mph N/A   Unknown
12:15 PM 32.0 °F 18.1 °F 30.2 °F 93% 29.61 in 1.0 mi West 27.6 mph 36.8 mph N/A   Unknown
12:35 PM 32.0 °F 17.6 °F 30.2 °F 93% 29.61 in 0.8 mi West 29.9 mph 35.7 mph N/A   Unknown
12:55 PM 32.0 °F 17.0 °F 30.2 °F 93% 29.61 in 1.0 mi West 33.4 mph - N/A   Unknown
1:15 PM 32.0 °F 18.6 °F 30.2 °F 93% 29.62 in 1.2 mi West 25.3 mph 36.8 mph N/A   Unknown
1:35 PM 32.0 °F 18.1 °F 30.2 °F 93% 29.61 in 0.8 mi West 27.6 mph 38.0 mph N/A   Unknown
1:55 PM 32.0 °F 17.6 °F 30.2 °F 93% 29.61 in 1.0 mi West 29.9 mph 34.5 mph N/A   Unknown
2:15 PM 32.0 °F 17.6 °F 30.2 °F 93% 29.61 in 2.5 mi West 29.9 mph 42.6 mph N/A   Unknown
2:35 PM 32.0 °F 18.1 °F 30.2 °F 93% 29.62 in 2.0 mi West 27.6 mph 34.5 mph N/A   Unknown
2:55 PM 32.0 °F 17.9 °F 30.2 °F 93% 29.62 in 4.0 mi West 28.8 mph 36.8 mph N/A   Unknown
3:15 PM 32.0 °F 17.4 °F 30.2 °F 93% 29.62 in 4.0 mi WNW 31.1 mph 36.8 mph N/A   Unknown
3:35 PM 32.0 °F 17.9 °F 30.2 °F 93% 29.62 in 3.0 mi West 28.8 mph 34.5 mph N/A   Unknown
4:15 PM 32.0 °F 18.1 °F 30.2 °F 93% 29.62 in 3.0 mi West 27.6 mph 39.1 mph N/A   Unknown
4:35 PM 32.0 °F 18.1 °F 30.2 °F 93% 29.63 in 2.0 mi West 27.6 mph 40.3 mph N/A   Unknown
4:55 PM 32.0 °F 18.1 °F 30.2 °F 93% 29.63 in 1.5 mi West 27.6 mph 34.5 mph N/A   Unknown
5:15 PM 32.0 °F 17.9 °F 30.2 °F 93% 29.63 in 2.0 mi West 28.8 mph 35.7 mph N/A   Unknown
5:35 PM 32.0 °F 18.1 °F 30.2 °F 93% 29.63 in 1.8 mi West 27.6 mph 34.5 mph N/A   Unknown
5:55 PM 32.0 °F 17.9 °F 30.2 °F 93% 29.63 in 2.0 mi West 28.8 mph 38.0 mph N/A   Unknown
6:15 PM 32.0 °F 17.2 °F 30.2 °F 93% 29.63 in 3.0 mi West 32.2 mph 42.6 mph N/A   Unknown
6:35 PM 32.0 °F 18.9 °F 28.4 °F 87% 29.63 in 2.5 mi West 24.2 mph 34.5 mph N/A   Unknown
6:55 PM 32.0 °F 18.1 °F 28.4 °F 87% 29.63 in 5.0 mi West 27.6 mph 38.0 mph N/A   Unknown
7:15 PM 32.0 °F 17.6 °F 28.4 °F 87% 29.62 in 2.0 mi West 29.9 mph 40.3 mph N/A   Unknown
7:35 PM 32.0 °F 17.2 °F 28.4 °F 87% 29.62 in 2.0 mi West 32.2 mph 41.4 mph N/A   Unknown
7:55 PM 32.0 °F 16.7 °F 28.4 °F 87% 29.61 in 3.0 mi West 34.5 mph 42.6 mph N/A   Unknown
8:15 PM 32.0 °F 17.6 °F 28.4 °F 87% 29.61 in 4.0 mi West 29.9 mph 39.1 mph N/A   Unknown
8:35 PM 32.0 °F 16.7 °F 28.4 °F 87% 29.60 in 4.0 mi West 34.5 mph 41.4 mph N/A   Unknown
8:55 PM 32.0 °F 17.6 °F 28.4 °F 87% 29.60 in 4.0 mi West 29.9 mph 39.1 mph N/A   Unknown
9:15 PM 32.0 °F 17.4 °F 28.4 °F 87% 29.60 in 10.0 mi West 31.1 mph 38.0 mph N/A   Unknown
9:35 PM 32.0 °F 18.1 °F 28.4 °F 87% 29.60 in 5.0 mi West 27.6 mph 39.1 mph N/A   Unknown
9:55 PM 32.0 °F 17.9 °F 30.2 °F 93% 29.59 in 2.5 mi West 28.8 mph 40.3 mph N/A   Unknown
10:15 PM 32.0 °F 18.1 °F 30.2 °F 93% 29.59 in 3.0 mi West 27.6 mph 38.0 mph N/A   Unknown
10:35 PM 32.0 °F 17.6 °F 30.2 °F 93% 29.58 in 5.0 mi West 29.9 mph 38.0 mph N/A   Unknown
10:55 PM 32.0 °F 17.2 °F 28.4 °F 87% 29.57 in 5.0 mi West 32.2 mph 40.3 mph N/A   Unknown
11:15 PM 32.0 °F 17.6 °F 28.4 °F 87% 29.56 in 7.0 mi West 29.9 mph 40.3 mph N/A   Unknown
11:35 PM 32.0 °F 17.6 °F 28.4 °F 87% 29.55 in 7.0 mi West 29.9 mph 38.0 mph 0.01 in   Unknown
11:55 PM 32.0 °F 17.6 °F 28.4 °F 87% 29.54 in 10.0 mi West 29.9 mph 38.0 mph 0.01 in   Unknown